This is the latest recevied weather packets stored in our database for station/object KC5TIL. If no packets are shown the sender has not sent any weather packets the latest 10 day(s).
| Time | Temp. | Humidity | Pressure | Rain* | Wind** | Luminosity | Snow |
|---|---|---|---|---|---|---|---|
| 1777157307 | 29.44° C | 68% | 1004.2 hPa | 0 mm | - | 302 W/m² | - |
| 1777157006 | 29.44° C | 69% | 1004.4 hPa | 0 mm | - | 165 W/m² | - |
| 1777156701 | 29.44° C | 68% | 1004.4 hPa | 0 mm | - | 157 W/m² | - |
| 1777156399 | 30° C | 67% | 1004.7 hPa | 0 mm | - | 154 W/m² | - |
| 1777156094 | 30° C | 66% | 1004.8 hPa | 0 mm | - | 193 W/m² | - |
| 1777155791 | 30.56° C | 65% | 1004.6 hPa | 0 mm | - | 267 W/m² | - |
| 1777155487 | 30° C | 67% | 1004.8 hPa | 0 mm | - | 389 W/m² | - |
| 1777155184 | 30.56° C | 66% | 1004.9 hPa | 0 mm | - | 395 W/m² | - |
| 1777154881 | 30.56° C | 66% | 1005 hPa | 0 mm | - | 381 W/m² | - |
| 1777154578 | 31.11° C | 65% | 1004.8 hPa | 0 mm | - | 456 W/m² | - |
| 1777154274 | 31.11° C | 64% | 1004.9 hPa | 0 mm | - | 485 W/m² | - |
| 1777153969 | 31.11° C | 64% | 1005 hPa | 0 mm | - | 455 W/m² | - |
| 1777153665 | 30° C | 65% | 1005 hPa | 0 mm | - | 486 W/m² | - |
| 1777153362 | 30.56° C | 65% | 1005.1 hPa | 0 mm | - | 205 W/m² | - |
| 1777153057 | 31.11° C | 64% | 1004.9 hPa | 0 mm | - | 429 W/m² | - |
| 1777152755 | 30.56° C | 66% | 1005.1 hPa | 0 mm | - | 530 W/m² | - |
| 1777152451 | 30.56° C | 65% | 1005 hPa | 0 mm | - | 557 W/m² | - |
| 1777152147 | 31.11° C | 64% | 1004.9 hPa | 0 mm | - | 607 W/m² | - |
| 1777151842 | 31.11° C | 64% | 1005 hPa | 0 mm | - | 578 W/m² | - |
| 1777151538 | 30.56° C | 65% | 1005.2 hPa | 0 mm | - | 597 W/m² | - |
| 1777151235 | 31.67° C | 65% | 1005.4 hPa | 0 mm | - | 614 W/m² | - |
| 1777150930 | 31.67° C | 63% | 1005.2 hPa | 0 mm | - | 603 W/m² | - |
| 1777150625 | 31.11° C | 64% | 1005.1 hPa | 0 mm | - | 513 W/m² | - |
| 1777150321 | 30.56° C | 65% | 1005.3 hPa | 0 mm | - | 583 W/m² | - |
| 1777150018 | 30.56° C | 67% | 1005.5 hPa | 0 mm | - | 636 W/m² | - |
* Rain latest hour (hover to see other rain measurements)
** Current wind speed in m/s (hover to see current wind gust speed)